Weather History for Newcastle, WY

Change the Weather History Date:

Monday, September 2, 2013

  Actual Average (KCUT) Record (KCUT)
Temperature  
Mean Temperature 74 °F 60 °F  
Max Temperature 89 °F 74 °F 95 °F (1969)
Min Temperature 60 °F 46 °F 26 °F (1952)
Degree Days  
Heating Degree Days 0 6  
Month to date heating degree days 12  
Since 1 July heating degree days 166  
Cooling Degree Days 10 1  
Month to date cooling degree days 2  
Year to date cooling degree days 168  
Growing Degree Days 24 (Base 50)    
Moisture  
Dew Point 42 °F    
Average Humidity 31    
Maximum Humidity 55    
Minimum Humidity 14    
Precipitation  
Precipitation 0.00 in 0.07 in 1.04 in (1973)
Month to date precipitation 0.14  
Year to date precipitation 15.06  
Sea Level Pressure  
Sea Level Pressure 30.08 in    
Wind  
Wind Speed 9 mph (ESE)    
Max Wind Speed 14 mph    
Max Gust Speed 18 mph    
Visibility 10 miles    
Events      
T = Trace of Precipitation, MM = Missing Value Source: NWS Daily Summary

Daily Weather History Graph

Daily Weather History Graph

Search for Another Location

Airport:

Trip Planner

Search our weather history database for the weather conditions in past years. The results will help you decide how hot, cold, wet, or windy it might be!

Date:

Astronomy

Sep. 02, 2013 Rise Set
Actual Time 6:22 AM MDT 7:30 PM MDT
Civil Twilight 5:52 AM MDT 8:00 PM MDT
Nautical Twilight 5:17 AM MDT 8:35 PM MDT
Astronomical Twilight 4:39 AM MDT 9:12 PM MDT
Moon 3:38 AM MDT (9/2) 5:47 PM MDT (9/2)
Length of Visible Light 14h 07m
Length of Day
13h 08m
Waning Crescent, 7% of the Moon is Illuminated
Sep 2
Waning Crescent
Sep 5
New
Sep 12
First Quarter
Sep 19
Full
Sep 26
Last Quarter

Hourly Weather History & Observations

Time (MDT) Temp. Dew Point Humidity Pressure Visibility Wind Dir Wind Speed Gust Speed Precip Events Conditions
12:15 AM 64.4 °F 41.0 °F 42% 30.12 in 10.0 mi North - - N/A   Clear
12:35 AM 66.2 °F 41.0 °F 40% 30.12 in 10.0 mi North - - N/A   Clear
12:55 AM 69.8 °F 39.2 °F 33% 30.13 in 10.0 mi ESE 13.8 mph - N/A   Clear
1:15 AM 69.8 °F 37.4 °F 31% 30.13 in 10.0 mi ESE 13.8 mph - N/A   Clear
1:35 AM 69.8 °F 37.4 °F 31% 30.13 in 10.0 mi ESE 13.8 mph - N/A   Clear
1:55 AM 69.8 °F 37.4 °F 31% 30.12 in 10.0 mi ESE 12.7 mph - N/A   Clear
2:15 AM 69.8 °F 37.4 °F 31% 30.12 in 10.0 mi ESE 12.7 mph - N/A   Clear
2:35 AM 69.8 °F 37.4 °F 31% 30.12 in 10.0 mi East 12.7 mph - N/A   Clear
2:55 AM 69.8 °F 37.4 °F 31% 30.12 in 10.0 mi East 12.7 mph - N/A   Clear
3:15 AM 68.0 °F 37.4 °F 33% 30.12 in 10.0 mi East 11.5 mph - N/A   Clear
3:35 AM 68.0 °F 37.4 °F 33% 30.11 in 10.0 mi East 10.4 mph - N/A   Clear
3:55 AM 68.0 °F 37.4 °F 33% 30.11 in 10.0 mi East 10.4 mph - N/A   Clear
4:15 AM 68.0 °F 37.4 °F 33% 30.11 in 10.0 mi East 10.4 mph - N/A   Clear
4:35 AM 68.0 °F 39.2 °F 35% 30.11 in 10.0 mi East 10.4 mph - N/A   Clear
4:55 AM 66.2 °F 41.0 °F 40% 30.11 in 10.0 mi East 10.4 mph - N/A   Clear
5:15 AM 66.2 °F 41.0 °F 40% 30.11 in 10.0 mi East 9.2 mph - N/A   Clear
5:35 AM 66.2 °F 41.0 °F 40% 30.11 in 10.0 mi East 9.2 mph - N/A   Clear
5:55 AM 66.2 °F 42.8 °F 43% 30.11 in 10.0 mi East 6.9 mph - N/A   Clear
6:15 AM 66.2 °F 42.8 °F 43% 30.11 in 10.0 mi East 6.9 mph - N/A   Clear
6:35 AM 66.2 °F 42.8 °F 43% 30.11 in 10.0 mi East 5.8 mph - N/A   Clear
6:55 AM 60.8 °F 42.8 °F 52% 30.12 in 10.0 mi Calm Calm - N/A   Clear
7:15 AM 60.8 °F 42.8 °F 52% 30.12 in 10.0 mi Calm Calm - N/A   Clear
7:35 AM 60.8 °F 44.6 °F 55% 30.12 in 10.0 mi Calm Calm - N/A   Clear
7:55 AM 62.6 °F 44.6 °F 52% 30.12 in 10.0 mi Calm Calm - N/A   Clear
8:15 AM 62.6 °F 46.4 °F 55% 30.12 in 10.0 mi Calm Calm - N/A   Clear
8:35 AM 66.2 °F 46.4 °F 49% 30.12 in 10.0 mi Calm Calm - N/A   Clear
8:55 AM 69.8 °F 48.2 °F 46% 30.13 in 10.0 mi South 3.5 mph - N/A   Clear
9:15 AM 71.6 °F 48.2 °F 43% 30.13 in 10.0 mi SSE 4.6 mph - N/A   Clear
9:35 AM 73.4 °F 48.2 °F 41% 30.13 in 10.0 mi South 4.6 mph - N/A   Clear
9:55 AM 75.2 °F 50.0 °F 41% 30.12 in 10.0 mi SE 6.9 mph - N/A   Clear
10:15 AM 77.0 °F 50.0 °F 39% 30.12 in 10.0 mi SSE 8.1 mph - N/A   Clear
10:35 AM 78.8 °F 50.0 °F 36% 30.12 in 10.0 mi SE 9.2 mph - N/A   Clear
10:55 AM 78.8 °F 50.0 °F 36% 30.12 in 10.0 mi SSE 9.2 mph - N/A   Clear
11:15 AM 80.6 °F 50.0 °F 34% 30.12 in 10.0 mi SE 8.1 mph - N/A   Clear
11:35 AM 80.6 °F 50.0 °F 34% 30.11 in 10.0 mi SE 5.8 mph - N/A   Clear
11:55 AM 82.4 °F 50.0 °F 32% 30.10 in 10.0 mi SE 8.1 mph - N/A   Clear
12:15 PM 84.2 °F 46.4 °F 27% 30.09 in 10.0 mi SSE 12.7 mph 17.3 mph N/A   Clear
12:35 PM 86.0 °F 44.6 °F 23% 30.09 in 10.0 mi North - - N/A   Clear
12:55 PM 86.0 °F 42.8 °F 22% 30.08 in 10.0 mi South 12.7 mph 18.4 mph N/A   Clear
1:15 PM 87.8 °F 42.8 °F 21% 30.08 in 10.0 mi SE 11.5 mph - N/A   Clear
1:35 PM 87.8 °F 41.0 °F 19% 30.07 in 10.0 mi SE 11.5 mph - N/A   Clear
1:55 PM 89.6 °F 41.0 °F 18% 30.07 in 10.0 mi South 13.8 mph 18.4 mph N/A   Clear
2:15 PM 87.8 °F 41.0 °F 19% 30.06 in 10.0 mi SE 11.5 mph 17.3 mph N/A   Clear
2:35 PM 89.6 °F 39.2 °F 17% 30.05 in 10.0 mi SSE 13.8 mph 17.3 mph N/A   Clear
2:55 PM 89.6 °F 35.6 °F 15% 30.04 in 10.0 mi South 11.5 mph 16.1 mph N/A   Clear
3:15 PM 89.6 °F 37.4 °F 16% 30.04 in 10.0 mi SE 6.9 mph - N/A   Clear
3:35 PM 89.6 °F 35.6 °F 15% 30.04 in 10.0 mi SE 8.1 mph - N/A   Clear
3:55 PM 89.6 °F 33.8 °F 14% 30.03 in 10.0 mi SE 5.8 mph - N/A   Clear
4:15 PM 89.6 °F 33.8 °F 14% 30.02 in 10.0 mi SSE 5.8 mph - N/A   Clear
4:35 PM 89.6 °F 35.6 °F 15% 30.02 in 10.0 mi SE 8.1 mph - N/A   Clear
4:55 PM 89.6 °F 33.8 °F 14% 30.01 in 10.0 mi South 4.6 mph - N/A   Clear
5:15 PM 89.6 °F 33.8 °F 14% 30.02 in 10.0 mi ESE 8.1 mph - N/A   Clear
5:35 PM 87.8 °F 33.8 °F 15% 30.01 in 10.0 mi SE 5.8 mph - N/A   Clear
5:55 PM 86.0 °F 39.2 °F 19% 30.00 in 10.0 mi ESE 4.6 mph - N/A   Clear
6:15 PM 86.0 °F 39.2 °F 19% 30.00 in 10.0 mi ESE 5.8 mph - N/A   Clear
6:35 PM 87.8 °F 41.0 °F 19% 29.99 in 10.0 mi ESE 5.8 mph - N/A   Clear
6:55 PM 86.0 °F 39.2 °F 19% 29.99 in 10.0 mi ESE 8.1 mph - N/A   Clear
7:15 PM 82.4 °F 41.0 °F 23% 30.00 in 10.0 mi ESE 6.9 mph - N/A   Clear
7:35 PM 82.4 °F 42.8 °F 25% 30.00 in 10.0 mi ESE 8.1 mph - N/A   Clear
7:55 PM 80.6 °F 42.8 °F 26% 30.01 in 10.0 mi East 6.9 mph - N/A   Clear
8:15 PM 80.6 °F 42.8 °F 26% 30.02 in 10.0 mi East 4.6 mph - N/A   Clear
8:35 PM 80.6 °F 42.8 °F 26% 30.02 in 10.0 mi East 6.9 mph - N/A   Clear
8:55 PM 80.6 °F 44.6 °F 28% 30.02 in 10.0 mi East 6.9 mph - N/A   Clear
9:15 PM 77.0 °F 46.4 °F 34% 30.02 in 10.0 mi NNW 12.7 mph - N/A   Clear
9:35 PM 78.8 °F 44.6 °F 30% 30.03 in 10.0 mi North 5.8 mph - N/A   Clear
9:55 PM 78.8 °F 44.6 °F 30% 30.04 in 10.0 mi North - - N/A   Clear
10:15 PM 78.8 °F 44.6 °F 30% 30.04 in 10.0 mi NNW 5.8 mph - N/A   Clear
10:35 PM 75.2 °F 46.4 °F 36% 30.04 in 10.0 mi NNW 5.8 mph - N/A   Clear
10:55 PM 77.0 °F 44.6 °F 32% 30.04 in 10.0 mi North 3.5 mph - N/A   Clear
11:15 PM 77.0 °F 44.6 °F 32% 30.04 in 10.0 mi North - - N/A   Clear
11:35 PM 73.4 °F 46.4 °F 38% 30.04 in 10.0 mi Calm Calm - N/A   Clear
11:55 PM 73.4 °F 46.4 °F 38% 30.03 in 10.0 mi East 4.6 mph - N/A   Clear